User: anonymous   Login
Location: Valdosta
(30.8330°N, 83.2790°W)
Time: 03:24:33
(UTC-04:00)
Language:

Uribyol 2 - Orbit

View from above orbital plane
View from above orbital plane
View from above satellite
View from above satellite

Ground track
Ground track

The orbit data is extracted from the following two-line orbital elements,

1 22828U 93061F   16182.91524801 -.00000010 +00000-0 +13421-4 0  9996
2 22828 098.7454 138.3224 0008878 234.6807 125.3546 14.30594936155488
Epoch (UTC): 30 June 2016 21:57:57
Eccentricity: 0.0008878
inclination: 98.7454°
perigee height: 783 km
apogee height: 796 km
right ascension of ascending node: 138.3224°
argument of perigee: 234.6807°
revolutions per day: 14.30594936
mean anomaly at epoch: 125.3546°
orbit number at epoch: 15548

The dashed part of the orbit path shows where the satellite is in the earth's shadow,  

DLR